Cherokee, IA

3:17 AM CDT on July 21, 2017 (GMT -0500)
Cherokee Municipal

Weather History for KCKP - November, 2011

Change the Weather History Date:

Wednesday, November 2, 2011

  Actual Average Record
Temperature  
Mean Temperature 42 °F -  
Max Temperature 46 °F 51 °F 78 °F (2005)
Min Temperature 37 °F 31 °F 5 °F (1951)
Degree Days  
Heating Degree Days 24    
Moisture  
Dew Point 32 °F    
Average Humidity 67    
Maximum Humidity 93    
Minimum Humidity 53    
Precipitation  
Precipitation 0.03 in - - ()
Sea Level Pressure  
Sea Level Pressure 30.17 in    
Wind  
Wind Speed 12 mph (North)    
Max Wind Speed 20 mph    
Max Gust Speed 29 mph    
Visibility 10 miles    
Events Rain    
Averages and records for this station are not official NWS values.
T = Trace of Precipitation, MM = Missing Value Source: NWS Daily Summary

Daily Weather History Graph

Daily Weather History Graph

Search for Another Location

Airport or City:

Trip Planner

Search our weather history database for the weather conditions in past years. The results will help you decide how hot, cold, wet, or windy it might be!

Date:

Astronomy

Nov. 02, 2011 Rise Set
Actual Time 7:57 AM CDT 6:13 PM CDT
Civil Twilight 7:27 AM CDT 6:43 PM CDT
Nautical Twilight 6:54 AM CDT 7:16 PM CDT
Astronomical Twilight 6:21 AM CDT 7:49 PM CDT
Moon 2:17 PM CDT (11/2) No Moon Set
Length of Visible Light 11h 15m
Length of Day
10h 16m
Waxing Crescent, 50% of the Moon is Illuminated
Nov 2
Waxing Crescent
Nov 10
Full
Nov 18
Last Quarter
Nov 25
New
Dec 2
First Quarter

Hourly Weather History & Observations

Time (CDT) Temp. Windchill Dew Point Humidity Pressure Visibility Wind Dir Wind Speed Gust Speed Precip Events Conditions
12:15 AM 46.4 °F 40.4 °F 32.0 °F 57% 30.02 in 10.0 mi North 13.8 mph 19.6 mph N/A   Clear
12:35 AM 46.4 °F 40.4 °F 32.0 °F 57% 30.04 in 10.0 mi North 13.8 mph 19.6 mph N/A   Clear
12:55 AM 46.4 °F 41.9 °F 32.0 °F 57% 30.05 in 10.0 mi North 9.2 mph 18.4 mph N/A   Clear
1:15 AM 46.4 °F 40.7 °F 32.0 °F 57% 30.06 in 10.0 mi North 12.7 mph - N/A   Clear
1:35 AM 46.4 °F 41.1 °F 32.0 °F 57% 30.07 in 10.0 mi North 11.5 mph - N/A   Clear
1:55 AM 44.6 °F 39.2 °F 32.0 °F 61% 30.08 in 10.0 mi North 10.4 mph - N/A   Clear
2:15 AM 44.6 °F 38.4 °F 32.0 °F 61% 30.08 in 10.0 mi North 12.7 mph - N/A   Mostly Cloudy
2:35 AM 44.6 °F 38.8 °F 32.0 °F 61% 30.08 in 10.0 mi North 11.5 mph - N/A   Overcast
2:55 AM 44.6 °F 38.8 °F 32.0 °F 61% 30.07 in 10.0 mi North 11.5 mph - N/A   Mostly Cloudy
3:15 AM 44.6 °F 38.1 °F 30.2 °F 57% 30.08 in 10.0 mi North 13.8 mph - N/A   Scattered Clouds
3:35 AM 46.4 °F 41.1 °F 30.2 °F 53% 30.09 in 10.0 mi North 11.5 mph 17.3 mph N/A   Mostly Cloudy
3:55 AM 46.4 °F 40.1 °F 30.2 °F 53% 30.10 in 10.0 mi North 15.0 mph 20.7 mph N/A   Mostly Cloudy
4:55 AM 46.4 °F 40.4 °F 30.2 °F 53% 30.13 in 10.0 mi North 13.8 mph 17.3 mph N/A   Mostly Cloudy
5:55 AM 46.4 °F 39.8 °F 30.2 °F 53% 30.13 in 10.0 mi North 16.1 mph 27.6 mph N/A   Mostly Cloudy
6:15 AM 46.4 °F 39.2 °F 30.2 °F 53% 30.14 in 10.0 mi North 18.4 mph 24.2 mph N/A   Mostly Cloudy
6:35 AM 46.4 °F 39.8 °F 32.0 °F 57% 30.14 in 10.0 mi North 16.1 mph 23.0 mph N/A   Scattered Clouds
6:55 AM 46.4 °F 40.1 °F 32.0 °F 57% 30.14 in 10.0 mi NNE 15.0 mph 25.3 mph N/A   Clear
7:15 AM 44.6 °F 37.4 °F 30.2 °F 57% 30.14 in 10.0 mi North 16.1 mph 24.2 mph N/A   Scattered Clouds
7:35 AM 44.6 °F 37.4 °F 30.2 °F 57% 30.14 in 10.0 mi North 16.1 mph 23.0 mph N/A   Scattered Clouds
7:55 AM 44.6 °F 36.6 °F 30.2 °F 57% 30.16 in 10.0 mi North 19.6 mph 26.5 mph N/A   Scattered Clouds
8:15 AM 42.8 °F 34.3 °F 32.0 °F 66% 30.22 in 10.0 mi North 19.6 mph 26.5 mph N/A Rain Light Rain
8:55 AM 39.2 °F 29.6 °F 35.6 °F 87% 30.23 in 7.0 mi NNE 19.6 mph 28.8 mph 0.02 in Rain Light Rain
9:15 AM 37.4 °F 29.3 °F 35.6 °F 93% 30.22 in 5.0 mi North 12.7 mph 23.0 mph N/A Rain Rain
9:35 AM 39.2 °F 32.5 °F 35.6 °F 87% 30.20 in 10.0 mi NNE 10.4 mph - 0.01 in Rain Light Rain
9:55 AM 39.2 °F 30.8 °F 37.4 °F 93% 30.19 in 10.0 mi NNE 15.0 mph 18.4 mph 0.01 in   Light Drizzle
10:15 AM 39.2 °F 33.0 °F 37.4 °F 93% 30.19 in 10.0 mi North 9.2 mph 16.1 mph N/A Rain Light Rain
10:35 AM 41.0 °F 35.2 °F 37.4 °F 87% 30.20 in 10.0 mi North 9.2 mph - N/A   Light Drizzle
10:55 AM 41.0 °F 35.2 °F 37.4 °F 87% 30.20 in 10.0 mi NNE 9.2 mph - N/A   Clear
11:15 AM 41.0 °F 36.4 °F 37.4 °F 87% 30.20 in 10.0 mi North 6.9 mph - N/A   Clear
11:35 AM 41.0 °F 35.8 °F 37.4 °F 87% 30.20 in 10.0 mi North 8.1 mph - N/A   Clear
11:55 AM 42.8 °F 39.3 °F 37.4 °F 81% 30.20 in 10.0 mi North 5.8 mph - N/A   Clear
12:15 PM 42.8 °F 38.6 °F 37.4 °F 81% 30.21 in 10.0 mi NNW 6.9 mph - N/A   Clear
12:35 PM 42.8 °F 37.5 °F 37.4 °F 81% 30.20 in 10.0 mi North 9.2 mph - N/A   Clear
1:35 PM 42.8 °F 37.5 °F 35.6 °F 76% 30.19 in 10.0 mi North 9.2 mph - N/A   Clear
2:15 PM 42.8 °F 38.0 °F 35.6 °F 76% 30.21 in 10.0 mi North 8.1 mph - N/A   Clear
2:35 PM 42.8 °F 38.0 °F 35.6 °F 76% 30.22 in 10.0 mi North 8.1 mph - N/A   Clear
2:55 PM 42.8 °F 37.0 °F 35.6 °F 76% 30.21 in 10.0 mi North 10.4 mph - N/A   Clear
3:15 PM 42.8 °F 36.6 °F 33.8 °F 70% 30.22 in 10.0 mi North 11.5 mph - N/A   Clear
3:35 PM 42.8 °F 37.0 °F 33.8 °F 70% 30.21 in 10.0 mi North 10.4 mph - N/A   Clear
3:55 PM 44.6 °F 38.1 °F 33.8 °F 66% 30.18 in 10.0 mi North 13.8 mph 17.3 mph N/A   Clear
4:15 PM 44.6 °F 38.4 °F 32.0 °F 61% 30.18 in 10.0 mi North 12.7 mph 20.7 mph N/A   Clear
4:35 PM 44.6 °F 38.8 °F 32.0 °F 61% 30.19 in 10.0 mi North 11.5 mph - N/A   Clear
4:55 PM 44.6 °F 38.4 °F 32.0 °F 61% 30.20 in 10.0 mi North 12.7 mph 20.7 mph N/A   Clear
5:15 PM 44.6 °F 39.2 °F 30.2 °F 57% 30.21 in 10.0 mi North 10.4 mph - N/A   Clear
5:35 PM 44.6 °F 39.2 °F 30.2 °F 57% 30.22 in 10.0 mi North 10.4 mph - N/A   Clear
5:55 PM 42.8 °F 36.6 °F 28.4 °F 57% 30.23 in 10.0 mi North 11.5 mph - N/A   Clear
6:35 PM 42.8 °F 37.0 °F 28.4 °F 57% 30.23 in 10.0 mi North 10.4 mph - N/A   Clear
6:55 PM 42.8 °F 37.5 °F 30.2 °F 61% 30.24 in 10.0 mi North 9.2 mph - N/A   Clear
7:15 PM 42.8 °F 36.6 °F 30.2 °F 61% 30.24 in 10.0 mi North 11.5 mph 16.1 mph N/A   Clear
7:35 PM 42.8 °F 35.8 °F 30.2 °F 61% 30.23 in 10.0 mi North 13.8 mph 18.4 mph N/A   Clear
7:55 PM 41.0 °F 34.3 °F 30.2 °F 65% 30.24 in 10.0 mi North 11.5 mph 18.4 mph N/A   Clear
8:15 PM 41.0 °F 34.3 °F 30.2 °F 65% 30.23 in 10.0 mi North 11.5 mph - N/A   Clear
8:35 PM 41.0 °F - 28.4 °F 61% 30.23 in 10.0 mi Calm Calm - N/A   Clear
8:55 PM 39.2 °F 31.2 °F 28.4 °F 65% 30.23 in 10.0 mi North 13.8 mph 18.4 mph N/A   Clear
9:15 PM 37.4 °F 28.9 °F 28.4 °F 70% 30.23 in 10.0 mi North 13.8 mph - N/A   Clear
9:35 PM 37.4 °F 31.4 °F 28.4 °F 70% 30.24 in 10.0 mi North 8.1 mph 17.3 mph N/A   Clear
9:55 PM 37.4 °F 32.8 °F 28.4 °F 70% 30.26 in 10.0 mi North 5.8 mph - N/A   Clear
10:15 PM 37.4 °F 32.1 °F 28.4 °F 70% 30.26 in 10.0 mi North 6.9 mph - N/A   Clear
10:35 PM 35.6 °F 30.7 °F 28.4 °F 75% 30.26 in 10.0 mi North 5.8 mph - N/A   Clear
10:55 PM 35.6 °F 30.7 °F 28.4 °F 75% 30.26 in 10.0 mi North 5.8 mph - N/A   Clear
11:15 PM 35.6 °F 29.9 °F 28.4 °F 75% 30.25 in 10.0 mi North 6.9 mph - N/A   Clear
11:35 PM 33.8 °F 27.7 °F 28.4 °F 81% 30.24 in 10.0 mi North 6.9 mph - N/A   Clear
11:55 PM 33.8 °F 28.6 °F 28.4 °F 81% 30.26 in 10.0 mi North 5.8 mph - N/A   Clear